Content
SEND FEEDBACK

Daily
Averages
Monthly
Summary
Switzerland

GENEVA, SWITZERLAND


Home > Europe > Switzerland
Elevation: 1364 feet     Latitude: 46 15N     Longitude: 006 08E

WEATHER
 
SELECT A DAY
Number of Records: 305,659;   Date Range: 7/1/96 - 7/26/14
 
SHARE

PRINT THIS DATA

[ ← Previous Day ]
WEATHER ALMANAC - JANUARY 15, 2013
[ Next Day → ]
[ °C ]   °F
Weather ElementAverageHighLow
Temperature30.6 °F33.8 °F (1:50 pm)26.6 °F (2:50 am)
Dewpoint26.9 °F30.2 °F (10:50 am)23 °F (1:00 am)
Humidity84.6 %100 % (9:50 am)63 % (1:00 am)
Barometer29.75 in29.91 in (1:00 am)29.68 in (5:50 am)
Wind Speed7.1 mph11.5 mph (1:00 am)
Weather ElementAverage
Visibility4.9 mi
Wind DirectionSW (223.1 °)

Weather ElementTotal
Precipitation---
Heating Degree Days34.8 (Base 65)
Averaged from 67 records on January 15, 2013
WEATHER CONDITIONS BREAKOUT
WIND DIRECTION BREAKOUT
WEATHER BY HOUR - JANUARY 15, 2013
[ °C ]   °F
Local TimeTemperatureDewpointHumidityBarometerVisibilityWind DirectionWind SpeedGust SpeedPrecipitationEventsConditions
12:20 AM30.2 °F26.6 °F86 %29.83 inSW (230°)8.1 mphClear
12:50 AM30.2 °F24.8 °F80 %29.83 inSW (230°)6.9 mphClear
1:00 AM31.0 °F23.0 °F63 %29.91 in16.0 miSW (230°)11.5 mph
1:20 AM28.4 °F24.8 °F86 %29.83 inWSW (240°)8.1 mphClear
1:50 AM28.4 °F24.8 °F86 %29.80 inSW (230°)8.1 mphClear
2:00 AM29.0 °F23.0 °F71 %29.88 inWSW (240°)8.1 mph
2:50 AM26.6 °F24.8 °F93 %29.80 inWSW (240°)6.9 mphClear
3:00 AM28.0 °F24.0 °F77 %29.88 inWSW (240°)6.9 mph
3:20 AM28.4 °F24.8 °F86 %29.77 inWSW (240°)6.9 mphClear
3:50 AM28.4 °F23.0 °F80 %29.77 inWSW (240°)3.5 mphClear
4:20 AM28.4 °F23.0 °F80 %29.74 inWSW (240°)6.9 mphClear
4:50 AM28.4 °F23.0 °F80 %29.74 inSW (220°)9.2 mphClear
5:00 AM28.0 °F23.0 °F73 %29.81 inWSW (250°)6.9 mph
5:20 AM28.4 °F24.8 °F86 %29.71 inWSW (250°)5.8 mphClear
5:50 AM28.4 °F24.8 °F86 %29.68 in6.2 miWSW (240°)9.2 mphMostly Cloudy
6:00 AM29.0 °F23.0 °F70 %29.77 inWSW (240°)9.2 mph
6:20 AM28.4 °F24.8 °F86 %29.68 in6.2 miWSW (240°)8.1 mphMostly Cloudy
6:50 AM30.2 °F24.8 °F80 %29.68 in6.2 miWSW (250°)6.9 mphMostly Cloudy
7:20 AM30.2 °F24.8 °F80 %29.68 in6.2 miWSW (250°)8.1 mphMostly Cloudy
7:50 AM28.4 °F26.6 °F93 %29.68 in1.9 miWSW (250°)6.9 mphSnowLight Snow
8:00 AM29.0 °F26.0 °F85 %29.76 inWSW (250°)4.6 mph
8:20 AM28.4 °F26.6 °F93 %29.68 in0.5 miWest (260°)3.5 mphSnowSnow
8:50 AM28.4 °F26.6 °F93 %29.68 in0.3 miVariable2.3 mphSnowHeavy Snow
9:00 AM28.0 °F27.0 °F92 %29.77 inWest (280°)2.3 mph
9:05 AM28.4 °F26.6 °F93 %29.68 in0.3 miVariable2.3 mphSnowHeavy Snow
9:20 AM28.4 °F26.6 °F93 %29.68 in0.2 miWSW (250°)3.5 mphSnowHeavy Snow
9:50 AM28.4 °F28.4 °F100 %29.68 in0.6 miWSW (240°)3.5 mphSnowLight Snow
10:20 AM30.2 °F28.4 °F93 %29.68 in0.8 miWSW (240°)3.5 mphSnowLight Snow
10:27 AM30.2 °F28.4 °F93 %29.68 in0.9 miWSW (240°)3.5 mphSnowLight Snow
10:50 AM30.2 °F30.2 °F100 %29.71 in3.1 miWest (270°)3.5 mphOvercast
11:00 AM30.0 °F27.0 °F85 %29.78 inWest (260°)2.3 mph
11:20 AM30.2 °F30.2 °F100 %29.71 in4.3 miVariable2.3 mphOvercast
11:50 AM32.0 °F30.2 °F93 %29.71 in4.3 miSW (220°)3.5 mphMostly Cloudy
12:00 PM32.0 °F28.0 °F79 %29.78 inSW (230°)3.5 mph
12:20 PM32.0 °F30.2 °F93 %29.71 in5.0 miSSW (200°)6.9 mphMostly Cloudy
12:50 PM32.0 °F30.2 °F93 %29.71 in5.0 miSSW (210°)6.9 mphMostly Cloudy
1:00 PM33.0 °F28.0 °F73 %29.77 in5.0 miSW (220°)9.2 mphMist
1:20 PM32.0 °F30.2 °F93 %29.71 in6.2 miSW (220°)9.2 mphMostly Cloudy
1:50 PM33.8 °F28.4 °F81 %29.71 in6.2 miSW (220°)10.4 mphMostly Cloudy
2:00 PM33.0 °F27.0 °F70 %29.77 inSW (220°)10.4 mph
2:20 PM33.8 °F28.4 °F81 %29.71 in6.2 miSW (220°)8.1 mphMostly Cloudy
2:50 PM33.8 °F28.4 °F81 %29.71 in6.2 miWSW (240°)8.1 mphMostly Cloudy
3:00 PM33.0 °F27.0 °F70 %29.78 inSW (230°)9.2 mph
3:20 PM33.8 °F28.4 °F81 %29.71 in6.2 miSW (230°)9.2 mphMostly Cloudy
3:50 PM33.8 °F26.6 °F75 %29.71 in6.2 miSSW (210°)10.4 mphScattered Clouds
4:20 PM33.8 °F26.6 °F75 %29.71 in6.2 miSW (230°)8.1 mphMostly Cloudy
4:50 PM32.0 °F26.6 °F80 %29.74 in6.2 miSW (220°)8.1 mphMostly Cloudy
5:00 PM33.0 °F26.0 °F66 %29.80 inSSW (210°)9.2 mph
5:20 PM32.0 °F26.6 °F80 %29.74 in6.2 miWSW (250°)5.8 mphMostly Cloudy
5:50 PM32.0 °F28.4 °F87 %29.74 in6.2 miWest (260°)4.6 mphMostly Cloudy
6:00 PM32.0 °F27.0 °F73 %29.81 inWest (270°)3.5 mph
6:20 PM32.0 °F28.4 °F87 %29.74 in6.2 miWSW (240°)4.6 mphMostly Cloudy
6:50 PM32.0 °F28.4 °F87 %29.77 in2.8 miWSW (250°)6.9 mphSnowLight Snow
7:00 PM31.0 °F29.0 °F87 %29.83 in12.0 miWSW (240°)8.1 mphMostly Cloudy
7:21 PM30.2 °F30.2 °F100 %29.77 in5.0 miSW (230°)9.2 mphSnowLight Snow
7:50 PM30.2 °F28.4 °F93 %29.77 in6.2 miSW (230°)10.4 mphSnowLight Snow
8:00 PM31.0 °F28.0 °F83 %29.83 inSW (220°)9.2 mph
8:20 PM32.0 °F28.4 °F87 %29.74 in6.2 miSW (220°)8.1 mphMostly Cloudy
8:50 PM32.0 °F28.4 °F87 %29.74 in6.2 miSSW (210°)10.4 mphMostly Cloudy
9:00 PM31.0 °F26.0 °F76 %29.82 inSW (220°)11.5 mph
9:20 PM32.0 °F26.6 °F80 %29.74 in6.2 miSW (220°)9.2 mphMostly Cloudy
9:50 PM32.0 °F26.6 °F80 %29.74 in2.8 miSW (220°)11.5 mphSnowLight Snow Showers
10:20 PM30.2 °F28.4 °F93 %29.74 in1.9 miSSW (210°)9.2 mphSnowSnow Showers
10:50 PM30.2 °F30.2 °F100 %29.74 in3.1 miSSW (200°)9.2 mphSnowLight Snow Showers
11:00 PM31.0 °F28.0 °F83 %29.82 inSSW (200°)10.4 mph
11:20 PM30.2 °F28.4 °F93 %29.74 in6.2 miSSW (200°)9.2 mphSnowLight Snow Showers
11:50 PM32.0 °F28.4 °F87 %29.74 in6.2 miWSW (250°)4.6 mphMostly Cloudy
Hourly data recorded from LSGG, located miles away from Geneva, Switzerland







STORIES FROM OUR PARTNERS